TimeCDT,TemperatureF,Dew PointF,Humidity,Sea Level PressureIn,VisibilityMPH,Wind Direction,Wind SpeedMPH,Gust SpeedMPH,PrecipitationIn,Events,Conditions,WindDirDegrees,DateUTC
12:11 AM,64.4,55.4,73,30.00,10.0,Calm,Calm,-,N/A,,Clear,0,2013-06-20 05:11:00
12:31 AM,64.4,55.4,73,29.99,10.0,Calm,Calm,-,N/A,,Clear,0,2013-06-20 05:31:00
12:51 AM,64.4,55.4,73,29.99,10.0,Calm,Calm,-,N/A,,Clear,0,2013-06-20 05:51:00
1:11 AM,64.4,55.4,73,29.99,10.0,Calm,Calm,-,N/A,,Clear,0,2013-06-20 06:11:00
1:31 AM,64.4,55.4,73,29.99,10.0,SE,3.5,-,N/A,,Scattered Clouds,140,2013-06-20 06:31:00
1:51 AM,64.4,55.4,73,29.99,10.0,Calm,Calm,-,N/A,,Mostly Cloudy,0,2013-06-20 06:51:00
2:11 AM,64.4,55.4,73,29.99,10.0,SSE,3.5,-,N/A,,Mostly Cloudy,150,2013-06-20 07:11:00
2:31 AM,64.4,55.4,73,29.99,10.0,Calm,Calm,-,N/A,,Scattered Clouds,0,2013-06-20 07:31:00
2:51 AM,64.4,55.4,73,29.99,10.0,South,3.5,-,N/A,,Clear,180,2013-06-20 07:51:00
3:11 AM,64.4,57.2,77,29.99,10.0,South,3.5,-,N/A,,Clear,170,2013-06-20 08:11:00
3:31 AM,64.4,55.4,73,29.99,10.0,South,3.5,-,N/A,Thunderstorm,Clear,180,2013-06-20 08:31:00
3:51 AM,64.4,57.2,77,29.99,10.0,Calm,Calm,-,N/A,,Scattered Clouds,0,2013-06-20 08:51:00
4:11 AM,64.4,57.2,77,29.99,10.0,Calm,Calm,-,N/A,,Scattered Clouds,0,2013-06-20 09:11:00
4:31 AM,64.4,59.0,83,29.99,10.0,Calm,Calm,-,N/A,,Mostly Cloudy,0,2013-06-20 09:31:00
4:51 AM,62.6,57.2,82,29.99,10.0,Calm,Calm,-,N/A,,Scattered Clouds,0,2013-06-20 09:51:00
5:11 AM,62.6,57.2,82,29.98,10.0,Calm,Calm,-,N/A,,Clear,0,2013-06-20 10:11:00
5:31 AM,62.6,57.2,82,29.97,10.0,Calm,Calm,-,N/A,,Clear,0,2013-06-20 10:31:00
5:50 AM,60.8,55.4,82,29.99,10.0,Calm,Calm,-,N/A,,Clear,0,2013-06-20 10:50:00
6:11 AM,60.8,55.4,82,29.99,10.0,Calm,Calm,-,N/A,,Clear,0,2013-06-20 11:11:00
6:31 AM,62.6,59.0,88,29.99,10.0,Calm,Calm,-,N/A,,Clear,0,2013-06-20 11:31:00
6:51 AM,62.6,59.0,88,29.99,10.0,Calm,Calm,-,N/A,,Clear,0,2013-06-20 11:51:00
7:11 AM,64.4,59.0,83,29.99,10.0,Calm,Calm,-,N/A,,Scattered Clouds,0,2013-06-20 12:11:00
7:31 AM,64.4,59.0,83,30.00,10.0,Calm,Calm,-,N/A,,Mostly Cloudy,0,2013-06-20 12:31:00
7:51 AM,64.4,59.0,83,30.01,10.0,Calm,Calm,-,N/A,,Overcast,0,2013-06-20 12:51:00
8:11 AM,64.4,59.0,83,30.02,10.0,Calm,Calm,-,N/A,,Overcast,0,2013-06-20 13:11:00
8:31 AM,64.4,59.0,83,30.02,10.0,Calm,Calm,-,N/A,Rain,Light Rain,0,2013-06-20 13:31:00
8:51 AM,68.0,60.8,78,30.02,10.0,Calm,Calm,-,N/A,,Scattered Clouds,0,2013-06-20 13:51:00
9:11 AM,68.0,60.8,78,30.02,10.0,South,4.6,-,N/A,,Clear,170,2013-06-20 14:11:00
9:31 AM,69.8,62.6,78,30.02,10.0,South,4.6,-,N/A,,Clear,170,2013-06-20 14:31:00
9:51 AM,69.8,60.8,73,30.02,10.0,South,5.8,-,N/A,,Clear,170,2013-06-20 14:51:00
10:11 AM,73.4,62.6,69,30.01,10.0,SSW,6.9,-,N/A,,Clear,200,2013-06-20 15:11:00
10:31 AM,73.4,60.8,65,30.01,10.0,South,6.9,-,N/A,,Scattered Clouds,180,2013-06-20 15:31:00
10:51 AM,73.4,60.8,65,30.00,10.0,SSW,8.1,-,N/A,,Mostly Cloudy,200,2013-06-20 15:51:00
11:11 AM,73.4,60.8,65,30.01,10.0,SSW,6.9,-,N/A,,Mostly Cloudy,210,2013-06-20 16:11:00
11:31 AM,75.2,62.6,65,30.01,10.0,SSW,5.8,-,N/A,,Scattered Clouds,200,2013-06-20 16:31:00
11:51 AM,75.2,62.6,65,30.00,10.0,South,4.6,-,N/A,,Clear,190,2013-06-20 16:51:00
12:11 PM,75.2,62.6,65,29.99,10.0,SSE,4.6,-,N/A,,Clear,160,2013-06-20 17:11:00
12:31 PM,77.0,62.6,61,29.98,10.0,SSE,9.2,-,N/A,,Clear,150,2013-06-20 17:31:00
12:51 PM,78.8,62.6,57,29.97,10.0,SE,8.1,-,N/A,,Clear,140,2013-06-20 17:51:00
1:11 PM,80.6,62.6,54,29.97,10.0,South,11.5,-,N/A,,Clear,180,2013-06-20 18:11:00
1:31 PM,78.8,62.6,57,29.97,10.0,SSE,10.4,-,N/A,,Clear,150,2013-06-20 18:31:00
1:51 PM,78.8,60.8,54,29.97,10.0,SE,10.4,-,N/A,,Clear,130,2013-06-20 18:51:00
2:11 PM,78.8,60.8,54,29.98,10.0,SE,5.8,-,N/A,,Scattered Clouds,140,2013-06-20 19:11:00
2:31 PM,78.8,60.8,54,29.98,10.0,SSE,6.9,-,N/A,,Scattered Clouds,160,2013-06-20 19:31:00
2:51 PM,82.4,64.4,54,29.98,10.0,South,8.1,-,N/A,,Clear,170,2013-06-20 19:51:00
3:11 PM,78.8,62.6,57,29.98,10.0,SSE,9.2,-,N/A,,Scattered Clouds,160,2013-06-20 20:11:00
3:31 PM,80.6,60.8,51,29.97,10.0,South,6.9,-,N/A,,Scattered Clouds,170,2013-06-20 20:31:00
3:51 PM,80.6,60.8,51,29.97,10.0,SE,9.2,-,N/A,,Scattered Clouds,140,2013-06-20 20:51:00
4:11 PM,77.0,62.6,61,29.96,10.0,ESE,6.9,-,N/A,,Scattered Clouds,110,2013-06-20 21:11:00
4:31 PM,77.0,62.6,61,29.96,10.0,Calm,Calm,-,N/A,Rain,Rain,0,2013-06-20 21:31:00
4:51 PM,69.8,60.8,73,29.99,2.5,South,8.1,25.3,0.10,Rain-Thunderstorm,Heavy Thunderstorms and Rain,190,2013-06-20 21:51:00
5:11 PM,68.0,62.6,83,29.98,7.0,ENE,5.8,-,0.01,Rain-Thunderstorm,Light Thunderstorms and Rain,60,2013-06-20 22:11:00
5:31 PM,69.8,64.4,83,29.97,7.0,NE,5.8,-,0.03,Rain-Thunderstorm,Thunderstorms and Rain,50,2013-06-20 22:31:00
5:51 PM,69.8,64.4,83,29.98,4.0,ENE,8.1,-,0.17,Rain-Thunderstorm,Light Thunderstorms and Rain,70,2013-06-20 22:51:00
6:11 PM,69.8,66.2,88,29.98,10.0,NNE,3.5,-,0.01,Rain,Rain,20,2013-06-20 23:11:00
6:31 PM,68.0,64.4,88,29.97,3.0,East,6.9,-,0.19,Rain,Light Rain,80,2013-06-20 23:31:00
6:50 PM,69.8,66.2,88,29.96,10.0,NE,4.6,-,0.19,Thunderstorm,Scattered Clouds,50,2013-06-20 23:50:00
7:11 PM,69.8,66.2,88,29.97,10.0,ENE,8.1,-,N/A,,Clear,60,2013-06-21 00:11:00
7:31 PM,68.0,64.4,88,29.97,10.0,ENE,4.6,-,N/A,,Clear,60,2013-06-21 00:31:00
7:51 PM,66.2,62.6,88,29.97,10.0,ENE,5.8,-,N/A,,Clear,70,2013-06-21 00:51:00
8:11 PM,64.4,62.6,94,29.97,10.0,ENE,6.9,-,N/A,,Clear,70,2013-06-21 01:11:00
8:31 PM,64.4,62.6,94,29.97,10.0,East,5.8,-,N/A,,Clear,80,2013-06-21 01:31:00
8:51 PM,64.4,62.6,94,29.97,10.0,East,10.4,-,N/A,,Clear,80,2013-06-21 01:51:00
9:11 PM,64.4,62.6,94,29.97,10.0,East,9.2,-,N/A,,Clear,80,2013-06-21 02:11:00
9:31 PM,64.4,62.6,94,29.97,10.0,East,8.1,-,N/A,,Clear,90,2013-06-21 02:31:00
9:51 PM,64.4,62.6,94,29.97,10.0,East,6.9,-,N/A,,Clear,90,2013-06-21 02:51:00
10:11 PM,64.4,62.6,94,29.98,10.0,East,6.9,-,N/A,,Clear,90,2013-06-21 03:11:00
10:31 PM,64.4,62.6,94,29.97,10.0,East,5.8,-,N/A,,Scattered Clouds,80,2013-06-21 03:31:00
10:51 PM,64.4,62.6,94,29.97,10.0,East,6.9,-,N/A,,Scattered Clouds,80,2013-06-21 03:51:00
11:11 PM,64.4,62.6,94,29.96,10.0,East,9.2,-,N/A,,Mostly Cloudy,80,2013-06-21 04:11:00
11:31 PM,64.4,62.6,94,29.94,10.0,East,9.2,-,N/A,,Overcast,90,2013-06-21 04:31:00
11:51 PM,64.4,62.6,94,29.93,10.0,East,6.9,-,N/A,,Overcast,90,2013-06-21 04:51:00